Location: Ash Observatory
(39.7321°N, 75.2004°W)
Time: 01:43:56
(UTC-04:00)

Envisat - Pass Details

Date: 02 April 2019
Orbit: 764 x 766 km, 98.1° (Epoch: 13 October)

Event Time Altitude Azimuth Distance (km) Brightness Sun altitude
Rises 21:09:06 0° 220° (SW) 3,218 6.4 -19.8°
Reaches altitude 10° 21:13:24 10° 255° (WSW) 2,300 6.1 -20.6°
Maximum altitude 21:14:46 11° 271° (W) 2,233 6.3 -20.8°
Drops below altitude 10° 21:16:08 10° 287° (WNW) 2,305 6.6 -21.1°
Sets 21:20:29 0° 323° (NW) 3,239 7.3 -21.8°
